Wind_Speed
5 3 2 3 3 4 5 5 4 4 4 4 5 5 4 4 4 5 5 5 5 5 6 6 6 6 6 6 6 6 6 6 5 6 5 5 5 6 6 6 7 7 7
3 2 2 2 2 3 4 5 4 4 4 4 4 4 4 4 5 5 6 6 6 6 7 7 7 7 7 7 7 8 8 7 7 7 7 7 7 7 7 7 8 8 7
2 1 1 0 1 2 3 4 4 5 4 4 4 4 4 5 5 6 6 6 7 7 7 7 7 7 8 8 8 9 9 8 8 8 8 8 8 8 9 9 9 10 10
1 1 1 1 1 2 2 3 4 4 4 4 4 4 5 5 6 6 7 7 7 7 7 7 7 7 8 9 9 9 10 10 10 9 9 9 9 10 10 10 10 11 11
2 1 1 1 1 1 1 2 3 3 4 5 5 5 5 6 6 5 6 6 7 7 7 7 8 8 8 9 9 10 10 11 11 11 11 11 10 11 11 11 12 12 13
2 1 1 0 1 1 2 2 3 3 3 4 5 5 5 5 5 5 6 6 6 7 7 8 8 8 9 10 10 11 11 12 12 12 12 13 12 12 12 12 13 13 13
3 3 2 1 0 1 1 2 2 2 3 3 4 5 5 5 5 6 6 6 7 7 8 8 8 9 10 11 11 11 12 12 12 12 13 13 13 13 13 13 14 14 14
4 3 3 2 1 0 1 1 1 1 2 2 3 4 5 5 5 6 7 7 8 8 9 9 9 10 10 11 12 12 13 13 13 13 13 14 14 14 14 15 15 15 15
4 4 4 3 2 1 0 0 1 1 1 2 3 4 4 5 6 6 7 8 8 9 10 10 9 9 11 11 12 12 13 14 14 14 14 15 14 14 15 15 15 15 15
5 4 3 3 2 2 0 0 1 1 2 2 3 4 5 6 7 7 7 8 8 9 9 10 10 11 11 11 12 13 13 14 15 15 15 15 15 16 15 16 16 16 17
5 4 3 3 2 2 1 1 2 2 3 4 4 5 6 7 7 8 8 8 8 9 9 10 10 11 11 11 12 13 14 15 16 17 17 17 16 17 18 18 18 18 17
6 5 4 3 3 3 3 2 3 3 4 5 5 6 6 7 7 8 8 9 9 9 10 10 11 12 12 12 13 13 14 15 16 17 18 18 18 19 18 19 19 18 18
5 5 4 4 4 4 4 4 4 4 5 6 6 7 7 8 8 8 8 9 10 10 10 11 11 12 12 12 13 15 15 16 17 17 18 19 19 18 19 19 20 19 19
6 5 5 5 5 5 5 5 5 6 6 6 7 8 9 9 8 8 9 10 10 11 12 12 13 13 13 13 13 13 15 16 17 17 17 17 17 17 19 19 19 19 20
7 6 6 6 6 6 6 7 7 7 8 8 8 9 9 10 9 10 10 10 11 12 13 13 14 15 15 14 14 14 14 14 15 16 16 15 16 16 17 18 19 19 19
8 8 8 8 8 8 8 8 8 9 9 9 10 10 10 10 11 11 11 12 12 12 13 15 15 16 15 15 15 15 15 15 16 16 16 16 16 16 17 17 18 19 19
9 9 9 9 9 9 9 9 9 10 10 11 11 11 11 12 12 12 13 13 14 14 15 15 16 16 16 16 17 16 16 17 17 18 18 17 17 18 18 18 18 19 19
11 11 11 11 11 11 11 10 10 11 11 12 12 12 12 13 13 14 14 15 15 16 16 16 15 16 16 16 16 17 18 18 18 18 18 18 19 20 20 19 20 20 20
12 12 12 13 13 12 12 12 12 12 12 12 13 13 14 14 15 15 16 16 16 17 17 17 17 17 17 18 18 18 19 19 19 19 20 20 21 21 20 20 21 22 22
13 13 13 14 14 14 14 14 13 13 13 14 15 15 15 15 16 16 17 17 18 18 18 18 18 18 18 18 18 18 19 19 20 21 21 21 22 22 21 21 22 23 24
15 15 14 14 15 15 15 15 15 15 15 15 16 16 16 17 17 17 18 18 18 18 18 19 19 19 19 19 18 18 19 20 21 22 23 22 23 24 23 24 24 24 24
16 17 16 15 16 16 16 16 16 16 16 17 17 17 17 17 18 18 18 19 19 19 19 19 19 19 19 20 19 20 20 21 22 22 22 23 24 24 24 23 24 24 24
18 18 17 17 17 17 17 17 17 18 18 18 18 18 17 18 18 19 19 19 19 20 20 20 20 20 21 21 21 22 22 23 23 23 23 23 24 24 24 24 25 25 25
19 19 19 19 18 18 18 18 19 19 19 19 19 19 19 19 20 20 20 21 21 21 21 21 21 21 22 22 22 23 23 23 24 24 24 24 24 25 25 25 25 25 25
21 20 20 20 20 21 21 20 20 20 20 20 20 20 21 21 21 22 22 22 22 22 22 22 23 23 23 23 23 23 23 24 25 25 25 26 25 26 26 26 26 26 26
22 23 23 23 23 23 23 22 22 22 22 22 23 23 23 23 23 23 23 23 23 22 23 23 23 23 24 24 24 24 24 24 25 25 25 25 25 26 26 26 26 25 25
Wind_Direction
127 140 142 160 170 180 186 188 194 200 208 214 220 223 221 230 245 253 252 247 245 248 251 250 256 259 258 255 249 245 242 240 246 250 253 252 250 248 251 256 254 247 247
114 111 114 166 197 197 200 202 205 206 215 219 215 222 232 241 249 255 260 251 245 250 256 258 259 258 259 258 252 248 245 245 248 254 254 257 256 252 255 260 258 252 254
99 115 130 135 206 205 200 206 210 212 212 211 216 225 236 246 252 256 259 253 251 252 254 260 264 260 261 258 253 250 248 249 251 251 254 258 257 254 255 258 262 261 259
67 110 136 199 212 215 215 221 221 224 228 230 232 237 245 257 260 261 260 257 256 256 255 258 263 264 264 257 252 252 253 252 253 255 255 259 260 256 258 259 262 264 261
71 99 126 177 179 182 221 241 243 241 240 240 239 245 254 262 263 264 263 259 257 260 258 261 263 268 265 258 252 252 254 255 258 259 258 262 262 258 261 262 263 263 263
40 54 91 255 232 229 250 261 260 246 241 238 244 249 256 264 267 264 265 266 263 264 267 269 268 270 266 259 258 255 255 255 259 263 263 263 262 261 264 265 264 264 264
29 23 6 351 247 255 273 272 253 247 240 243 253 258 264 265 266 262 264 269 270 270 271 274 277 277 271 262 259 257 255 255 259 264 266 264 264 264 266 264 267 266 265
18 8 9 27 56 270 307 321 290 271 260 261 264 272 275 271 268 269 269 272 274 276 277 278 279 280 276 270 263 260 258 259 262 266 267 268 265 265 266 265 267 266 267
18 22 32 41 43 46 336 14 27 335 297 281 273 277 285 284 280 278 275 272 276 279 278 280 281 284 281 274 267 263 264 266 264 268 269 272 270 272 269 267 267 265 267
31 35 36 37 42 41 37 139 356 336 314 302 295 288 285 291 287 284 283 279 278 281 281 280 281 284 284 277 269 266 268 269 267 268 270 273 273 274 274 271 270 270 269
27 26 32 28 29 24 9 312 313 311 306 306 304 295 291 292 288 289 288 288 285 284 285 284 285 285 285 281 274 271 271 271 270 271 271 269 271 274 275 274 273 272 269
18 23 27 21 4 355 349 330 313 306 305 306 306 305 301 303 292 288 292 290 289 292 290 289 288 286 285 280 278 275 274 273 271 270 268 271 273 277 275 271 273 271 269
9 10 6 358 350 344 340 335 327 319 311 307 309 309 309 307 298 291 291 291 290 292 293 292 291 292 289 285 281 278 276 275 273 269 268 269 272 273 274 272 269 270 269
1 360 349 343 339 336 329 326 322 317 312 309 310 307 309 311 305 299 296 293 291 293 293 294 294 293 290 287 288 286 284 283 280 273 269 274 277 274 273 272 271 271 270
347 344 336 330 326 324 321 318 317 313 311 309 309 309 310 310 307 307 304 301 297 296 298 297 296 296 295 288 287 289 289 288 282 278 279 284 283 280 276 277 275 275 273
335 332 329 324 321 319 316 314 312 311 309 308 306 307 308 307 304 305 306 307 305 303 302 297 295 295 296 294 288 289 286 282 282 286 286 282 284 285 285 283 279 278 277
324 323 320 317 316 315 313 312 309 309 308 307 304 302 303 306 306 303 303 304 304 304 302 298 294 292 292 290 289 288 285 285 285 286 283 281 281 282 283 283 283 281 279
321 317 315 313 310 309 308 306 306 306 307 307 305 303 303 304 304 303 302 301 301 302 302 298 297 293 292 292 291 292 291 289 288 287 286 284 283 283 282 282 283 282 281
313 314 312 309 307 306 306 304 302 302 304 306 305 304 303 302 303 303 302 301 301 302 302 299 297 296 295 292 292 292 290 288 287 287 286 285 284 283 282 283 283 282 282
304 308 311 308 305 303 302 300 299 299 300 301 301 301 300 300 301 301 301 301 300 302 304 302 298 298 299 295 293 292 290 288 288 290 290 287 284 282 281 283 283 281 281
298 302 305 305 304 303 302 300 300 299 300 300 299 300 300 299 298 299 300 300 299 300 301 301 301 299 299 298 296 295 294 292 290 291 291 289 288 286 284 283 281 280 280
294 297 300 302 302 301 300 297 297 298 299 300 300 301 300 300 299 298 299 299 299 299 299 299 299 298 296 295 294 295 294 293 291 291 290 290 291 290 288 286 283 281 281
290 294 295 298 299 299 297 296 295 296 296 297 298 298 298 299 299 298 298 298 298 298 297 297 297 297 295 294 295 295 295 294 293 291 291 291 290 288 286 285 285 283 281
284 289 291 292 293 294 294 293 292 292 293 294 296 297 298 297 296 296 296 296 296 296 297 295 296 296 295 295 295 294 294 293 292 292 291 292 290 288 287 286 285 282 282
283 285 288 288 291 291 291 291 288 288 291 292 293 294 295 295 295 295 295 295 294 294 295 295 295 295 294 293 295 295 293 292 292 291 290 291 291 289 287 285 283 283 283
283 285 287 288 289 289 289 288 287 289 290 290 290 290 291 292 293 294 294 294 294 294 295 297 296 295 294 293 294 294 293 292 292 291 290 290 291 291 288 285 284 284 285
Height
5888 5888 5888 5889 5889 5889 5889 5890 5890 5891 5891 5892 5892 5893 5893 5894 5894 5894 5894 5894 5894 5895 5895 5895 5896 5896 5896 5896 5896 5897 5897 5897 5897 5897 5897 5897 5897 5897 5898 5898 5898 5898 5898
5889 5889 5889 5889 5889 5889 5889 5890 5890 5891 5891 5891 5892 5892 5893 5893 5893 5893 5893 5893 5893 5894 5894 5894 5894 5894 5895 5895 5895 5895 5895 5896 5896 5896 5896 5896 5896 5896 5896 5896 5896 5897 5897
5889 5889 5889 5889 5889 5889 5889 5889 5890 5890 5891 5891 5891 5891 5892 5892 5892 5892 5892 5892 5892 5892 5892 5893 5893 5893 5893 5893 5893 5893 5894 5894 5894 5894 5894 5895 5895 5895 5895 5895 5895 5895 5895
5889 5889 5889 5889 5889 5889 5889 5889 5889 5890 5890 5890 5891 5891 5891 5891 5891 5890 5890 5890 5890 5890 5890 5891 5891 5891 5891 5891 5891 5891 5892 5892 5892 5892 5892 5892 5893 5893 5893 5893 5893 5893 5893
5889 5889 5889 5889 5889 5889 5889 5889 5889 5889 5889 5890 5890 5890 5890 5890 5890 5889 5889 5889 5889 5889 5889 5889 5889 5889 5889 5889 5889 5889 5890 5890 5890 5890 5890 5890 5890 5890 5890 5890 5891 5891 5891
5890 5889 5889 5889 5888 5888 5888 5888 5888 5888 5888 5889 5889 5889 5889 5889 5888 5888 5888 5888 5888 5888 5888 5887 5887 5887 5887 5887 5887 5887 5887 5888 5888 5888 5888 5888 5888 5888 5888 5888 5888 5888 5888
5890 5889 5888 5888 5888 5888 5888 5888 5888 5887 5887 5887 5888 5888 5888 5887 5887 5887 5887 5886 5886 5886 5886 5886 5885 5885 5885 5885 5885 5885 5885 5885 5885 5885 5885 5885 5885 5885 5885 5885 5885 5885 5885
5890 5889 5888 5888 5888 5888 5887 5887 5887 5887 5887 5887 5887 5887 5887 5887 5886 5886 5885 5885 5885 5884 5884 5883 5883 5883 5882 5882 5882 5882 5882 5882 5882 5882 5882 5882 5882 5881 5881 5881 5881 5881 5881
5890 5889 5888 5887 5887 5887 5887 5887 5887 5886 5886 5886 5886 5886 5886 5885 5885 5884 5883 5883 5883 5882 5881 5881 5881 5880 5880 5879 5879 5879 5879 5879 5879 5879 5879 5879 5879 5878 5878 5878 5878 5878 5878
5890 5889 5888 5887 5887 5887 5887 5887 5886 5886 5886 5886 5885 5885 5885 5884 5883 5882 5882 5881 5880 5879 5879 5879 5878 5878 5877 5877 5876 5876 5876 5876 5876 5876 5876 5876 5876 5875 5875 5875 5874 5874 5874
5890 5889 5888 5887 5887 5887 5886 5886 5886 5886 5885 5885 5885 5884 5883 5882 5881 5881 5880 5879 5878 5877 5877 5876 5875 5875 5874 5874 5873 5873 5873 5873 5872 5872 5872 5872 5872 5871 5871 5870 5870 5870 5869
5890 5889 5888 5888 5887 5887 5886 5886 5885 5885 5885 5884 5883 5882 5882 5881 5879 5878 5878 5877 5876 5875 5874 5873 5872 5872 5871 5871 5870 5870 5869 5869 5868 5868 5867 5867 5867 5867 5866 5866 5865 5865 5865
5891 5889 5888 5888 5887 5886 5886 5885 5885 5884 5883 5883 5882 5881 5880 5878 5877 5876 5876 5875 5874 5873 5872 5871 5869 5869 5868 5867 5867 5866 5865 5865 5864 5863 5863 5863 5862 5862 5861 5861 5861 5860 5860
5891 5890 5889 5887 5887 5886 5885 5884 5884 5883 5882 5881 5880 5879 5878 5876 5875 5874 5873 5872 5871 5870 5869 5868 5866 5865 5864 5863 5863 5862 5862 5861 5860 5859 5859 5858 5858 5857 5856 5856 5856 5856 5856
5891 5889 5888 5887 5886 5885 5884 5883 5882 5881 5880 5879 5878 5877 5876 5874 5873 5872 5871 5869 5869 5867 5866 5865 5863 5862 5861 5859 5859 5858 5858 5857 5856 5855 5855 5854 5853 5853 5852 5851 5851 5851 5850
5890 5888 5887 5886 5885 5883 5882 5881 5880 5879 5878 5877 5876 5874 5873 5872 5871 5869 5868 5867 5865 5864 5863 5861 5859 5858 5857 5856 5855 5854 5853 5852 5851 5851 5850 5849 5849 5848 5847 5847 5846 5846 5845
5888 5887 5886 5884 5883 5882 5881 5879 5878 5877 5876 5874 5873 5872 5871 5869 5868 5867 5865 5864 5862 5861 5859 5858 5856 5854 5853 5852 5851 5850 5849 5848 5847 5846 5845 5845 5844 5844 5843 5842 5841 5840 5840
5887 5885 5884 5882 5881 5880 5878 5877 5876 5874 5873 5872 5870 5869 5868 5866 5865 5863 5862 5861 5859 5857 5856 5854 5852 5850 5849 5848 5846 5845 5844 5843 5842 5841 5840 5840 5839 5839 5838 5837 5836 5835 5834
5884 5883 5881 5880 5878 5877 5876 5874 5873 5871 5870 5869 5867 5866 5865 5863 5861 5860 5859 5857 5855 5854 5852 5850 5848 5846 5845 5843 5842 5840 5839 5838 5837 5836 5835 5834 5834 5833 5832 5831 5830 5829 5828
5882 5880 5878 5877 5875 5874 5872 5871 5870 5868 5867 5865 5864 5862 5861 5859 5858 5856 5855 5853 5851 5849 5847 5845 5844 5842 5840 5838 5837 5836 5834 5833 5832 5831 5829 5828 5827 5826 5825 5824 5823 5822 5821
5878 5877 5875 5874 5872 5870 5869 5867 5866 5864 5863 5861 5860 5858 5857 5855 5853 5852 5850 5848 5847 5845 5843 5841 5839 5837 5836 5834 5832 5831 5829 5828 5827 5825 5824 5822 5821 5820 5819 5818 5817 5815 5814
5874 5873 5871 5870 5868 5867 5865 5863 5862 5860 5859 5857 5855 5854 5852 5851 5849 5847 5845 5843 5842 5840 5838 5836 5834 5832 5831 5829 5827 5826 5824 5823 5821 5820 5818 5816 5815 5814 5812 5811 5810 5809 5808
5870 5869 5867 5865 5864 5862 5861 5859 5857 5856 5854 5852 5851 5849 5848 5846 5844 5842 5840 5838 5836 5834 5833 5831 5829 5827 5825 5824 5822 5820 5819 5817 5815 5814 5812 5810 5808 5807 5806 5804 5803 5802 5801
5865 5864 5862 5860 5859 5857 5856 5854 5853 5851 5849 5848 5846 5844 5843 5841 5839 5837 5835 5833 5831 5829 5827 5825 5824 5821 5819 5817 5815 5814 5812 5811 5809 5807 5805 5804 5802 5800 5799 5797 5796 5795 5793
5859 5858 5856 5855 5853 5852 5850 5849 5847 5845 5844 5842 5840 5839 5837 5835 5833 5831 5829 5827 5825 5823 5821 5819 5818 5815 5814 5811 5809 5808 5806 5804 5802 5801 5799 5797 5795 5793 5792 5790 5789 5787 5786
5852 5851 5850 5848 5847 5846 5844 5843 5841 5839 5838 5836 5835 5833 5831 5829 5827 5825 5823 5821 5819 5817 5815 5814 5811 5809 5807 5805 5803 5801 5799 5797 5795 5794 5792 5790 5788 5786 5785 5783 5781 5780 5778